ATLAS CENTAUR R/B

Last updated on Wed Nov 05 2025 00:02:14 GMT+0000 (Coordinated Universal Time)

1 06155U 72065B 25307.73216927 .00001573 00000+0 21962-3 0 9999 2 06155 35.0025 323.6705 0033451 29.7390 330.5204 14.77249899822623
UTC large
Height (km)
Speed (km/s)
/
Latitude / Longitude
Inclination (degrees)
Orbital Period (minutes)
Azimuth
Elevation
Range (km)
Doppler Factor

Next 0 passes for location: London (51.5072 / 0.1276)

Sorry there are no passes over London.